GFSCGP_850_temp_168.txt.gz
Temp
30 32 32 34 34 34 34 33 32 33 32 31 32 32 30 27 27 27 26 25 24 24 23 21 20 19 18 18 17 17 18 18 19 19 18 18 18 19 19 20 20 20 19 20
30 31 34 34 33 33 33 33 33 33 32 31 32 32 32 30 29 29 27 26 25 25 24 22 21 20 19 19 18 18 19 19 19 19 19 19 19 19 19 19 20 20 20 20
32 33 34 33 32 33 33 33 33 33 32 32 31 31 32 31 30 29 28 28 26 26 25 23 21 20 20 19 18 19 20 20 20 20 19 20 20 20 20 20 20 19 20 20
32 32 32 32 33 33 33 33 33 33 32 33 32 33 32 33 31 30 30 28 28 26 26 25 23 21 21 20 19 19 21 21 21 21 19 20 19 20 20 20 20 18 20 19
32 31 31 32 33 33 33 33 33 33 33 33 32 33 31 33 32 32 31 30 29 28 26 26 24 23 22 22 21 21 22 21 21 21 21 19 20 19 19 19 19 19 19 20
33 31 33 33 34 33 33 32 32 33 34 31 34 33 33 33 33 34 33 31 30 29 28 26 25 24 23 22 22 21 22 22 22 22 22 21 21 19 19 19 19 19 19 19
30 31 32 31 32 33 33 33 31 31 31 32 33 33 35 36 35 35 34 33 31 30 29 27 26 25 24 23 22 21 22 23 22 22 22 22 22 21 20 20 19 19 19 20
30 29 31 32 33 32 32 34 33 30 32 33 31 32 34 36 35 34 34 34 33 32 30 28 27 26 25 24 23 22 21 23 23 22 22 22 21 21 21 20 19 19 19 20
31 31 33 33 34 34 32 32 35 34 33 34 34 34 35 36 36 35 33 33 33 32 31 29 28 27 25 24 24 23 23 24 23 23 23 22 22 22 21 21 19 19 19 18
32 31 32 32 33 33 34 34 32 33 31 31 33 33 35 35 36 34 33 33 32 32 31 30 28 27 26 25 25 24 23 24 24 24 23 23 23 22 22 21 19 18 18 18
32 32 31 32 31 32 31 33 34 35 34 33 32 34 36 35 36 34 33 32 31 31 31 30 29 28 26 26 25 24 23 22 21 22 21 21 20 21 20 19 18 18 17 17
32 32 31 31 33 34 34 34 34 33 31 33 34 35 37 36 35 33 34 32 32 31 30 29 28 27 26 25 25 24 23 22 21 20 21 22 20 18 19 20 20 19 18 17
31 30 31 31 31 32 33 34 35 35 35 33 32 34 36 36 34 33 33 32 30 30 29 28 27 26 25 24 23 23 22 21 20 21 22 19 18 20 19 19 19 18 17 17
30 31 31 31 31 33 31 33 34 35 33 33 34 34 35 35 35 34 32 32 30 28 28 27 25 24 23 22 21 21 21 20 21 20 18 19 18 17 17 18 18 17 17 16
31 29 30 32 33 34 33 33 33 33 34 34 34 34 35 35 35 36 33 30 28 27 26 25 24 23 22 21 22 21 20 20 21 21 19 19 19 18 18 18 17 17 17 16
30 28 30 30 32 32 33 34 34 34 34 34 35 34 36 35 35 33 31 29 28 27 26 24 23 22 21 21 20 20 21 20 19 19 19 20 19 19 18 18 17 17 17 15
28 29 28 29 31 31 30 32 33 33 34 34 33 34 35 35 33 33 32 30 29 28 25 24 22 21 21 20 19 18 20 20 20 20 19 19 19 18 18 17 17 16 14 13
27 27 28 29 30 28 31 34 33 33 32 33 34 35 34 33 33 33 33 31 29 27 25 23 22 20 19 18 18 20 20 20 20 19 19 18 18 18 17 17 15 14 11 11
28 27 28 28 29 30 31 32 32 32 32 33 33 33 33 33 30 31 29 30 28 26 23 22 21 19 18 17 19 21 20 19 19 18 18 18 18 17 16 15 14 14 12 11
27 26 28 28 28 28 31 33 32 33 31 33 33 33 34 30 31 35 30 26 25 23 21 20 19 17 17 17 20 19 19 17 17 18 18 18 17 16 14 13 13 12 10 10
25 25 26 28 28 30 33 33 32 29 31 33 33 32 33 31 33 30 28 25 23 21 19 18 17 17 16 17 18 18 18 18 18 17 18 17 16 15 14 12 11 10 10 9
25 25 26 27 27 27 33 33 31 32 33 33 32 32 32 30 28 26 24 22 21 19 17 17 16 15 15 16 18 18 19 19 19 18 17 17 16 14 11 12 10 10 9 9
26 27 28 28 28 31 30 32 31 32 32 33 33 31 31 28 26 24 22 21 19 18 17 16 15 15 16 18 18 19 19 19 19 17 16 16 15 13 11 12 10 10 9 10
26 28 28 28 29 30 30 29 28 28 28 31 31 31 29 28 25 23 21 20 18 17 16 15 15 16 17 17 17 18 19 18 16 17 15 15 13 10 13 10 9 9 8 8
29 27 27 28 30 29 30 29 30 29 27 27 28 29 28 27 24 22 20 18 17 16 15 15 15 16 16 16 17 17 17 16 15 15 13 10 10 11 10 10 10 7 8 8
28 28 28 29 29 29 30 29 28 28 27 26 27 27 26 25 22 20 18 17 16 15 15 14 14 16 16 16 17 17 17 16 16 14 11 11 11 10 9 9 7 8 7 8

GFSCGP_850_temp_171.txt.gz
Temp
32 33 34 35 35 34 36 34 35 35 35 34 35 33 32 30 30 30 29 27 26 26 24 23 22 22 21 20 19 19 18 18 17 18 18 19 20 20 20 20 20 19 19 19
34 33 36 37 36 35 36 35 35 35 35 34 35 34 34 32 32 31 30 29 28 27 26 24 22 22 21 21 20 19 18 19 19 18 19 19 20 21 21 20 20 20 19 18
33 34 36 36 35 35 36 36 35 35 35 35 35 34 34 34 33 32 31 30 29 28 27 25 23 22 22 21 20 19 18 18 20 20 19 19 19 19 20 20 20 20 19 19
34 36 35 35 35 35 35 36 35 35 34 34 36 32 34 35 34 33 32 31 30 29 28 26 24 23 23 22 21 20 18 18 18 19 19 19 20 20 21 21 22 21 19 19
34 35 35 35 35 36 35 37 36 35 35 35 35 34 35 35 34 34 34 32 32 30 29 28 26 24 23 23 22 21 19 18 19 18 20 19 19 20 20 21 21 20 20 20
35 35 36 35 36 36 36 35 35 35 35 34 35 35 35 35 35 35 35 34 32 31 30 29 27 26 24 24 23 22 20 21 21 18 20 21 20 19 20 21 21 21 21 21
34 35 36 35 35 36 35 34 33 33 34 34 37 35 35 37 37 37 36 34 33 32 31 30 28 27 25 25 24 23 21 22 22 22 22 22 22 21 21 21 20 20 21 22
32 32 34 35 35 35 34 35 34 31 33 35 35 34 36 38 37 37 36 35 34 33 32 31 30 28 27 26 25 24 22 21 23 23 23 23 22 22 22 22 20 20 21 22
32 32 35 35 35 35 34 33 36 35 36 35 35 36 38 38 37 37 37 36 35 34 33 32 31 29 28 26 25 25 24 22 21 21 22 22 22 22 20 21 19 19 19 19
35 32 35 35 35 35 35 36 34 35 33 33 36 35 35 36 37 38 37 37 36 35 34 33 32 30 29 28 26 25 24 23 21 21 20 20 20 21 22 21 20 19 19 19
35 35 34 35 34 34 34 35 35 36 36 35 34 35 38 37 38 37 37 36 36 35 35 34 33 31 29 29 28 26 25 24 22 21 21 20 20 19 19 19 19 19 19 19
35 34 34 34 35 36 36 35 35 34 33 36 36 37 39 38 38 37 36 35 35 35 35 34 33 32 30 29 28 27 26 24 23 22 21 20 20 20 20 19 19 18 18 18
34 33 32 33 35 35 35 35 36 36 36 34 35 35 38 38 37 36 37 35 34 34 34 33 32 32 30 28 28 27 26 25 23 21 20 20 20 20 19 18 18 17 17 16
33 33 33 34 33 35 33 35 35 36 35 35 35 36 37 37 37 36 36 35 34 33 33 32 30 29 28 27 26 25 24 23 21 20 20 20 19 18 18 17 17 17 16 15
33 31 33 34 36 35 35 35 35 35 35 35 36 36 37 37 37 37 36 35 33 32 31 30 28 27 26 24 24 23 22 21 20 20 19 18 18 17 17 16 16 15 15 16
33 30 32 32 35 36 34 35 35 36 36 36 36 36 38 37 37 36 36 33 32 31 30 29 27 25 24 23 22 22 21 20 19 18 18 18 17 16 16 15 16 17 16 15
31 31 31 30 33 34 33 35 35 35 36 36 35 36 38 37 37 36 36 35 32 31 30 28 26 24 23 22 22 20 19 19 18 17 16 16 17 17 17 17 17 15 14 13
30 30 31 31 32 30 34 36 37 36 36 37 37 37 37 37 36 36 35 35 34 32 30 27 25 24 22 22 20 20 18 18 17 16 16 17 17 17 17 16 15 14 13 12
32 30 30 30 31 32 33 35 35 34 34 36 36 36 36 36 36 35 34 34 34 32 29 26 24 23 22 20 19 18 17 17 16 16 17 18 19 19 17 16 14 14 12 12
31 30 30 29 30 30 33 35 35 36 33 35 35 35 36 35 34 35 34 34 33 30 27 25 23 21 20 18 18 17 17 16 16 17 19 20 19 17 15 15 15 13 12 11
28 29 28 30 29 32 35 36 35 31 33 35 35 34 34 35 35 34 33 32 30 27 24 23 21 20 18 17 17 16 16 16 18 19 20 20 20 19 16 14 15 11 11 10
27 27 29 30 29 29 34 35 33 33 34 34 34 34 34 34 34 32 30 28 26 24 23 21 20 19 17 17 16 16 17 19 17 18 19 18 15 13 15 14 14 10 11 11
27 28 29 30 30 32 33 34 34 34 33 33 34 34 34 33 33 30 27 26 24 22 21 20 19 17 17 16 16 18 19 17 17 18 18 18 17 15 16 14 11 12 11 12
29 30 29 29 30 32 32 33 33 33 33 33 33 34 34 33 33 29 26 24 23 21 20 20 18 17 16 15 14 16 17 16 18 18 18 17 15 12 11 12 12 11 10 10
30 29 29 29 31 31 31 31 31 31 30 30 30 31 32 32 30 27 25 23 21 20 19 18 17 16 15 14 13 14 16 17 17 17 17 14 11 11 13 11 10 11 11 11
30 30 29 29 30 30 31 31 31 31 32 31 29 30 30 31 29 26 24 22 20 19 18 17 16 15 14 13 13 16 16 17 17 16 13 14 13 13 11 10 11 10 10 10

GFSCGP_850_temp_174.txt.gz
Temp
32 32 32 34 33 27 29 31 30 33 36 34 29 32 31 31 31 29 28 26 26 25 24 22 21 21 20 20 20 20 19 19 19 19 18 19 19 20 20 21 21 20 20 19
33 32 34 36 36 31 31 30 34 35 36 35 34 33 32 32 32 31 30 28 27 26 25 24 22 21 20 21 21 20 19 19 19 19 19 19 20 20 21 21 21 21 20 19
32 34 35 36 35 35 35 36 35 35 35 36 36 34 33 33 33 32 31 30 29 28 26 24 23 23 22 21 21 20 20 19 19 20 19 19 20 20 21 21 21 21 21 19
33 35 35 35 35 36 35 36 36 36 35 34 36 33 33 33 33 33 32 31 30 29 27 25 24 23 23 22 21 20 20 20 21 20 20 19 19 20 20 21 21 22 21 20
33 34 35 35 36 36 35 37 36 36 35 35 35 33 34 34 33 33 33 32 31 30 28 26 25 23 23 23 22 21 20 20 20 21 21 20 19 20 20 21 21 21 21 21
34 35 36 36 37 37 37 36 36 36 35 33 35 34 33 34 34 34 34 33 32 31 29 28 26 25 24 23 23 22 21 21 21 20 22 21 20 20 20 20 21 21 21 21
33 34 36 37 36 36 36 35 33 32 33 33 37 34 34 36 36 36 35 34 33 31 31 29 27 26 24 24 24 23 22 22 23 22 22 23 22 21 21 21 21 21 21 22
32 32 35 36 36 35 35 35 33 31 32 34 36 35 35 38 37 37 36 35 34 33 32 30 29 27 25 25 24 24 23 23 23 23 23 23 23 22 22 22 22 21 20 21
33 32 36 36 36 36 35 34 36 34 36 35 36 37 37 38 37 37 37 36 35 34 33 31 30 28 27 26 25 24 24 24 24 24 23 23 23 23 22 21 20 20 20 21
34 32 35 36 36 36 35 36 33 35 31 32 35 35 35 36 37 37 37 37 35 34 34 32 31 30 28 27 26 25 24 24 24 23 23 22 22 22 22 21 20 20 20 20
34 34 34 35 34 34 34 35 35 35 35 33 33 34 38 36 37 37 38 37 36 35 34 33 32 30 29 28 27 26 25 24 24 23 21 21 20 20 20 20 20 19 19 19
34 34 33 34 36 36 35 35 35 34 32 35 35 35 39 38 38 38 37 37 37 36 35 34 33 32 30 29 28 27 26 25 24 23 21 21 20 20 20 20 19 19 19 18
34 33 33 33 35 35 34 35 35 36 35 34 34 35 39 38 38 37 37 37 36 36 36 35 34 32 30 30 29 28 27 26 24 23 22 21 20 20 20 20 20 19 18 17
33 34 33 33 34 35 33 35 36 35 34 35 35 35 37 37 37 37 37 36 36 35 35 35 34 33 31 30 29 28 27 26 24 22 21 21 20 20 20 19 18 17 16 16
34 31 33 34 36 36 35 35 35 35 35 35 36 36 36 36 37 37 36 35 35 34 34 33 32 31 30 29 28 27 26 25 23 22 20 20 20 19 18 17 16 17 17 17
35 31 33 33 35 36 35 35 35 35 36 36 36 37 38 37 37 37 36 35 34 34 33 31 30 29 28 27 27 26 24 23 22 20 20 20 19 17 17 19 20 20 19 18
33 33 31 31 33 34 34 35 35 36 36 36 35 37 38 37 37 36 35 34 33 33 32 30 29 27 26 25 25 24 23 21 20 20 20 19 18 19 20 20 19 18 16 14
31 30 31 31 31 30 34 37 37 36 36 37 37 37 37 37 37 37 36 34 33 32 31 30 28 26 24 23 22 21 20 20 20 19 17 18 19 20 19 17 18 17 14 14
33 31 30 30 30 31 34 35 36 35 35 37 36 37 37 37 37 36 36 36 35 33 31 30 27 25 23 22 21 20 20 19 17 17 18 19 19 17 16 17 17 16 14 14
33 31 30 30 30 29 33 35 36 37 33 37 37 37 37 37 35 36 35 35 35 33 30 28 26 24 22 21 20 20 19 17 17 18 18 17 16 15 16 17 17 16 13 13
30 30 29 30 29 31 34 36 36 32 33 36 36 35 35 35 35 36 35 34 34 32 29 27 24 23 21 20 20 18 17 17 17 17 16 16 16 16 16 17 17 14 13 13
28 28 30 30 29 29 35 35 33 35 35 35 35 35 35 34 34 34 33 31 29 27 25 24 23 21 20 19 19 17 17 16 16 16 15 16 16 15 16 17 15 14 12 12
27 29 30 30 30 33 34 34 34 35 34 34 34 34 35 34 34 34 31 28 27 25 24 22 21 20 20 18 18 17 16 15 15 15 16 14 13 14 16 16 13 13 13 12
29 30 29 29 31 32 33 33 33 33 34 34 33 34 34 34 34 32 29 26 25 24 22 21 20 19 18 17 17 15 15 15 15 16 15 14 14 15 14 12 12 12 11 11
30 29 28 28 29 30 31 32 33 33 32 32 32 32 32 32 33 29 27 25 23 22 21 20 19 19 17 17 16 15 14 15 15 15 14 13 13 13 13 12 13 13 12 12
31 29 29 28 29 29 30 31 32 32 32 32 32 31 31 31 29 27 25 23 22 21 21 19 18 18 16 15 14 14 15 15 15 14 13 13 13 14 13 13 12 12 11 10

GFSCGP_850_temp_180.txt.gz
Temp
28 25 24 25 26 26 27 26 24 24 27 26 24 23 21 21 21 21 20 20 20 20 20 20 20 19 19 19 19 19 19 19 19 19 20 20 20 20 20 20 20 20 20 20
25 23 26 27 27 28 27 26 24 25 26 24 23 22 23 22 21 21 20 20 20 20 20 20 20 20 20 19 19 19 19 19 19 20 20 20 20 20 20 20 20 20 20 20
23 26 28 29 28 28 27 25 26 26 27 26 25 23 23 23 23 22 21 21 21 21 20 20 20 20 20 19 19 19 19 19 19 20 20 20 20 20 20 20 20 20 20 21
24 28 28 28 28 28 26 28 28 27 25 23 26 22 23 24 23 23 22 22 21 21 21 21 21 20 20 20 20 20 20 20 20 20 20 20 20 20 21 21 21 21 20 20
25 27 27 28 29 29 29 29 28 28 27 27 26 23 23 23 24 24 23 23 23 22 23 22 22 22 21 21 20 20 20 20 20 20 20 20 20 21 21 21 21 21 20 20
26 29 28 29 30 30 31 30 29 27 24 23 26 24 23 25 26 25 25 24 24 23 24 24 24 23 22 21 21 21 21 21 20 20 20 21 21 21 21 21 21 21 20 20
26 27 29 30 28 29 30 29 26 25 23 25 23 25 24 27 28 27 25 25 25 25 25 24 24 23 23 22 22 22 22 21 21 20 21 21 22 21 21 21 21 21 21 20
23 24 28 29 28 27 27 30 24 25 24 26 25 26 28 29 29 29 27 27 26 25 25 26 26 25 25 24 23 23 22 22 22 21 22 22 22 21 21 21 21 20 21 20
21 23 28 29 30 28 29 27 26 24 25 25 26 28 29 29 29 29 27 27 26 26 26 27 27 26 26 25 25 24 23 23 23 22 23 23 23 22 22 21 21 20 20 20
25 24 26 30 30 29 27 28 28 21 26 27 25 28 27 27 28 29 27 28 27 26 27 28 28 28 27 27 26 25 25 24 25 24 24 24 24 23 22 21 21 21 20 19
24 23 25 28 27 28 27 27 25 22 22 23 24 25 25 28 29 28 28 29 28 27 28 28 29 29 29 28 27 26 26 25 25 24 24 24 24 23 22 22 21 20 19 18
25 21 23 24 28 29 26 27 24 22 25 22 22 25 29 29 28 30 29 29 28 29 30 30 30 30 29 28 28 27 27 27 26 25 25 24 23 22 22 21 19 19 18 18
25 22 21 24 25 27 28 27 24 21 21 23 24 25 29 27 28 30 30 30 29 28 28 29 30 29 29 29 29 28 28 28 27 26 25 24 23 21 21 20 19 19 18 18
28 21 25 23 26 26 28 28 27 24 22 23 23 27 29 30 27 27 30 30 29 29 29 29 29 30 30 30 29 29 28 28 27 26 24 23 22 22 21 20 19 18 18 18
26 25 23 27 27 28 28 28 27 25 25 25 28 26 27 28 26 28 30 30 30 29 29 29 30 30 30 30 29 29 28 28 27 26 25 23 22 21 20 20 19 18 18 18
22 24 23 25 26 27 28 28 29 28 26 26 26 27 27 30 30 30 30 29 29 29 30 30 31 30 30 30 30 29 29 28 27 26 25 23 22 20 19 19 19 19 18 18
22 27 22 25 27 27 25 27 28 29 29 28 27 26 29 31 29 31 31 32 30 30 31 31 30 31 31 31 31 30 29 28 26 25 24 23 21 20 19 19 18 18 18 18
20 26 23 25 22 23 26 26 29 30 31 26 29 27 27 30 35 33 35 33 33 33 32 32 32 31 31 31 30 29 29 28 26 25 23 22 21 20 19 18 18 18 19 18
21 22 19 23 24 25 27 28 28 27 28 27 28 27 30 33 31 31 36 35 35 34 35 34 34 33 32 31 29 29 28 27 25 24 22 21 20 20 19 18 18 19 19 18
19 26 23 20 24 24 24 27 30 26 25 28 27 25 28 29 25 24 35 34 35 35 35 33 33 32 32 30 29 29 27 25 24 22 22 21 19 19 18 18 19 18 17 17
19 24 24 20 25 22 24 27 30 26 24 29 29 29 29 26 28 36 35 33 33 34 33 32 32 31 30 29 28 27 26 24 22 21 21 19 18 18 18 19 19 17 17 16
20 19 18 19 21 25 27 27 28 26 32 33 31 32 32 33 34 35 36 33 32 33 32 30 30 29 28 28 26 25 24 23 21 20 19 18 18 18 19 19 18 16 15 14
23 20 20 21 20 21 30 29 30 32 32 33 33 32 34 33 33 32 32 32 32 32 31 29 30 28 26 25 25 25 23 21 20 19 18 17 17 18 18 18 17 16 14 13
17 20 20 23 25 24 29 30 31 31 31 33 33 35 33 34 34 34 34 33 33 32 31 30 28 26 25 23 23 24 22 20 19 19 17 17 17 17 17 16 16 15 14 13
16 17 18 20 24 24 28 30 31 31 30 32 32 33 34 33 32 33 32 32 32 31 29 28 27 26 24 22 21 21 20 20 18 18 17 17 17 18 17 16 15 14 13 12
16 16 16 18 22 24 26 29 30 31 30 31 31 31 32 33 32 31 31 31 31 30 28 26 25 25 23 21 20 20 19 19 18 17 16 17 17 17 16 16 15 13 12 12

GFSCGP_850_temp_183.txt.gz
Temp
26 23 23 24 23 25 25 24 24 24 26 24 22 20 19 19 19 19 19 19 19 20 20 19 19 19 19 19 19 19 19 19 19 20 20 20 21 20 20 20 20 20 20 20
24 22 24 25 26 26 26 26 24 25 25 24 21 21 20 19 19 19 19 19 20 20 20 20 19 19 19 19 19 19 19 19 19 20 20 20 21 20 20 20 20 20 20 20
22 24 25 26 26 25 25 24 24 26 25 24 23 21 20 20 20 20 20 20 20 20 20 20 20 19 19 19 19 19 20 19 19 20 20 20 20 21 21 21 21 20 20 20
23 25 26 26 27 26 23 25 26 25 24 23 24 22 20 21 20 21 20 20 20 20 20 20 20 20 19 19 19 20 20 19 19 20 19 20 21 21 21 21 21 21 20 20
23 24 24 25 27 26 26 27 26 26 23 24 24 23 22 21 21 21 21 21 20 21 20 21 21 20 20 20 20 20 20 20 20 20 20 20 20 21 21 21 20 21 20 20
24 27 25 26 28 29 29 29 27 22 21 21 23 23 22 20 23 22 22 22 22 22 22 22 22 21 21 20 20 20 20 20 20 20 20 20 20 21 21 21 21 21 20 20
24 25 27 29 28 27 28 23 22 22 21 21 22 22 26 24 25 24 24 23 22 23 23 22 22 22 22 21 21 21 21 21 20 20 20 20 21 20 21 21 21 21 20 20
21 23 25 26 25 25 25 23 21 22 22 23 22 23 26 28 27 26 25 25 23 23 24 24 24 24 23 23 22 22 22 21 21 21 21 21 21 20 21 21 21 21 20 20
19 22 26 27 27 27 25 24 26 24 21 22 22 25 27 25 26 26 25 24 24 24 25 25 25 25 25 24 24 24 23 23 22 22 22 22 21 21 21 21 21 21 20 20
22 23 24 28 27 26 25 25 24 19 23 24 24 25 26 25 25 25 25 24 25 25 25 26 26 26 26 26 25 24 24 24 24 24 23 22 22 21 21 21 21 21 20 19
22 21 24 26 25 27 25 24 22 21 20 22 23 25 23 24 25 25 25 26 26 26 26 27 27 27 27 27 27 26 26 26 25 25 24 23 23 22 21 21 21 20 19 18
21 19 22 24 26 26 26 25 23 22 23 19 22 24 28 24 26 27 27 26 28 29 29 29 29 28 28 28 28 28 28 27 27 26 24 24 23 22 22 22 21 19 18 18
21 19 20 25 24 25 25 24 22 20 19 21 23 24 25 25 25 28 28 28 27 29 28 28 29 29 29 29 28 29 29 29 28 26 24 23 23 22 22 21 20 18 18 18
20 17 23 22 25 24 25 25 23 23 20 22 22 26 27 25 25 26 28 28 28 27 29 30 29 30 29 29 29 28 29 28 27 26 25 24 23 23 22 20 19 18 19 19
19 20 20 24 23 26 26 26 23 24 23 25 26 24 26 26 24 26 29 29 28 27 27 29 30 30 30 29 29 28 28 28 27 26 25 24 24 22 21 20 20 20 19 18
15 20 21 22 25 26 25 25 25 25 23 26 25 25 25 28 29 26 27 28 27 27 28 30 31 30 31 31 31 30 29 28 27 27 26 25 23 22 21 20 20 19 18 18
14 17 20 24 23 24 23 26 26 26 24 26 25 26 27 28 28 27 27 28 29 29 29 29 30 31 32 31 31 31 30 29 28 27 26 25 23 22 21 20 19 19 18 17
15 15 17 23 20 21 25 24 26 26 26 25 26 26 25 28 33 34 32 29 30 31 31 31 31 31 32 32 31 30 30 29 27 27 26 25 23 22 21 20 19 18 18 17
16 15 16 20 22 23 25 24 26 25 26 25 25 26 26 30 30 31 32 32 32 35 35 35 34 34 33 32 32 30 29 28 27 26 25 24 24 22 20 19 19 18 17 17
17 17 17 17 21 22 22 26 28 24 27 26 25 24 25 27 25 25 34 35 34 35 35 35 34 34 33 32 31 30 29 29 28 26 25 24 23 21 20 19 18 18 17 17
13 15 18 19 23 20 22 25 28 24 23 26 27 29 26 24 28 36 35 34 34 33 35 35 34 34 33 32 31 29 28 28 28 26 24 23 22 20 20 19 18 17 17 17
17 16 17 18 20 24 23 25 27 26 31 30 29 31 30 31 34 34 35 35 34 33 33 33 33 33 33 32 31 29 28 28 26 25 23 22 20 19 19 18 17 17 17 17
18 17 17 21 24 20 24 29 30 32 33 31 33 33 32 30 33 35 33 34 33 33 33 32 32 33 32 31 30 28 27 26 24 22 22 20 19 18 18 17 17 17 17 17
14 15 15 20 22 23 26 29 31 32 32 33 33 34 34 33 31 33 35 34 32 31 32 32 31 31 31 29 28 27 27 25 22 21 20 20 19 18 17 17 17 17 17 16
13 14 14 15 19 22 25 30 30 31 32 33 33 33 34 33 33 32 31 31 30 30 30 31 31 30 29 28 26 25 24 24 21 20 19 19 17 17 17 16 16 16 16 15
14 14 12 13 16 15 20 25 30 30 32 33 33 33 33 33 34 34 33 32 31 31 31 31 30 30 28 26 25 24 23 22 21 19 18 17 17 16 17 17 17 16 14 14

GFSCGP_850_temp_186.txt.gz
Temp
25 22 22 23 22 24 24 24 24 24 24 22 20 20 18 18 17 18 18 18 18 18 20 19 19 19 18 18 18 19 19 19 19 19 19 20 20 20 20 20 20 20 20 19
21 21 23 24 24 25 24 24 24 24 24 23 20 21 19 18 18 18 18 19 19 18 19 19 19 19 19 18 18 19 19 19 20 19 20 20 20 20 20 20 20 20 20 20
21 23 24 25 24 25 23 23 23 25 24 22 21 21 18 19 19 18 18 19 19 19 19 20 19 19 19 19 19 19 19 19 20 19 20 20 20 20 21 21 21 20 20 20
23 24 24 24 25 24 24 24 25 24 23 22 23 21 19 18 18 19 19 19 19 19 19 20 20 20 19 19 19 19 19 20 20 19 20 20 20 20 21 21 20 20 20 20
22 22 23 24 25 26 25 25 24 24 23 22 23 21 21 19 18 18 19 19 20 20 20 20 20 20 20 20 20 20 20 20 20 20 20 20 20 20 21 20 20 20 20 20
22 24 24 24 26 27 26 25 22 19 19 20 21 22 22 18 21 20 21 20 20 21 21 21 21 20 20 20 20 20 20 20 20 20 20 20 20 20 20 20 20 20 20 20
22 23 25 26 26 26 24 22 20 21 20 21 20 21 25 23 21 22 21 21 21 22 22 22 21 21 21 20 20 20 20 20 21 21 21 21 21 20 20 20 20 20 20 20
19 21 23 25 25 23 23 23 20 22 21 22 20 21 24 25 25 25 24 27 23 22 23 23 23 22 22 21 21 21 21 21 21 21 21 22 21 21 20 20 20 20 19 19
17 21 24 24 25 27 23 23 22 19 20 21 21 22 24 25 22 23 23 23 22 23 24 25 24 24 23 22 22 23 23 23 22 22 22 22 22 21 21 20 20 19 19 19
19 21 23 25 27 26 24 24 23 18 23 23 22 23 23 26 22 23 22 23 23 24 25 26 25 25 25 25 24 24 24 24 24 24 23 23 22 22 21 21 20 20 19 19
18 20 22 23 23 23 23 22 19 19 19 21 21 22 22 25 22 23 23 24 25 26 26 27 26 26 26 25 25 25 25 25 25 25 24 23 23 22 22 21 20 20 20 19
20 17 20 22 24 24 25 22 21 20 21 18 20 23 25 24 23 24 24 26 27 28 28 28 27 27 26 26 26 26 26 26 26 26 25 24 23 23 22 22 21 20 20 19
19 17 18 23 22 23 26 22 20 19 18 19 21 23 24 22 23 26 25 25 29 29 28 28 28 27 28 28 27 27 27 27 27 26 25 24 24 23 23 22 21 20 19 19
17 15 20 20 22 21 23 22 22 22 19 20 20 25 26 26 24 24 27 27 27 29 30 30 29 29 29 29 29 29 28 27 27 26 25 25 24 24 23 21 21 20 19 18
14 16 19 21 23 24 24 23 21 24 22 25 26 22 24 23 23 26 30 29 27 27 28 30 30 30 30 30 30 29 29 28 27 27 26 26 25 23 22 21 20 19 18 18
10 16 18 21 23 24 23 24 23 25 22 24 25 23 23 26 27 27 30 29 27 28 29 30 31 31 31 30 30 30 30 29 28 27 26 26 25 23 22 21 20 19 19 18
11 12 13 21 21 22 21 25 22 23 22 25 24 26 25 25 23 27 29 29 30 28 30 29 31 31 31 31 31 31 30 29 29 28 27 26 25 24 22 21 20 19 19 18
11 11 12 16 18 20 24 24 26 23 24 23 25 25 23 27 32 33 33 34 32 31 30 30 30 32 32 32 31 31 31 30 29 28 27 26 25 24 23 21 21 19 18 18
12 11 12 16 17 21 23 23 25 22 25 22 23 24 26 28 28 29 32 34 35 34 34 35 34 33 32 32 32 32 31 30 29 29 28 27 26 25 23 22 20 19 18 17
12 13 13 13 18 20 21 23 26 24 25 22 24 23 24 26 24 24 34 34 35 34 34 34 34 32 32 32 31 31 30 29 29 28 27 25 25 24 23 22 21 19 18 17
10 11 14 15 14 18 20 24 25 23 23 26 27 28 25 23 26 34 34 34 35 35 35 34 33 33 33 33 31 30 29 29 28 27 26 24 23 23 22 21 20 19 17 16
12 12 12 13 14 17 23 23 24 26 28 28 30 31 29 30 32 33 33 34 35 35 35 35 34 33 32 32 32 31 29 28 27 26 24 23 23 22 21 20 19 18 17 16
15 14 14 15 16 18 24 28 29 31 31 29 32 32 32 32 32 33 33 34 34 34 34 35 34 34 32 32 32 32 30 29 27 25 23 22 22 21 20 19 19 17 16 16
13 13 11 13 17 15 20 27 26 30 32 32 32 32 33 33 32 32 34 33 34 35 34 34 33 33 32 33 31 30 30 28 26 25 23 22 21 19 18 18 17 17 17 17
14 14 11 11 13 15 22 23 20 24 28 32 33 33 33 34 34 33 33 32 33 34 33 33 33 32 32 32 31 29 28 27 26 24 23 21 20 19 18 17 16 16 16 16
13 12 11 11 13 12 13 17 18 21 26 31 32 32 33 33 34 34 33 33 32 32 31 29 29 29 31 31 29 27 27 26 26 24 22 21 20 19 17 17 16 15 15 14